| time (UTC) | temp C | wind direction | speed KPH | gust KPH | rain 1hr cm | rain 24hr cm | rain mn cm | humidity % | barometer mb |
| 20260506234205 | 3 | 96 | 0.0 | 0.0 | 0.00 | 0.00 | 0.00 | 88 | 1013.1 |
| 20260506233704 | 3 | 96 | 0.0 | 0.0 | 0.00 | 0.00 | 0.00 | 88 | 1013.0 |
| 20260506233230 | 3 | 96 | 0.0 | 0.0 | 0.00 | 0.00 | 0.00 | 87 | 1013.0 |
| 20260506232705 | 3 | 96 | 0.0 | 0.0 | 0.00 | 0.00 | 0.00 | 87 | 1013.0 |
| 20260506230205 | 4 | 96 | 0.0 | 0.0 | 0.00 | 0.00 | 0.00 | 85 | 1013.0 |
| 20260506225705 | 4 | 96 | 0.0 | 3.2 | 0.00 | 0.00 | 0.00 | 85 | 1013.0 |
| 20260506225204 | 4 | 96 | 0.0 | 3.2 | 0.00 | 0.00 | 0.00 | 85 | 1013.0 |
| 20260506224704 | 5 | 96 | 0.0 | 4.8 | 0.00 | 0.00 | 0.00 | 84 | 1012.8 |
| 20260506224205 | 5 | 96 | 1.6 | 6.4 | 0.00 | 0.00 | 0.00 | 83 | 1012.8 |
| 20260506223705 | 5 | 96 | 0.0 | 6.4 | 0.00 | 0.00 | 0.00 | 83 | 1012.8 |
| 20260506223204 | 5 | 82 | 1.6 | 6.4 | 0.00 | 0.00 | 0.00 | 83 | 1012.7 |
| 20260506222705 | 5 | 83 | 3.2 | 6.4 | 0.00 | 0.00 | 0.00 | 84 | 1012.8 |
| 20260506222204 | 5 | 157 | 3.2 | 8.0 | 0.00 | 0.00 | 0.00 | 84 | 1012.8 |
| 20260506221705 | 5 | 155 | 4.8 | 8.0 | 0.00 | 0.00 | 0.00 | 84 | 1012.7 |
| 20260506221204 | 5 | 117 | 1.6 | 6.4 | 0.00 | 0.00 | 0.00 | 84 | 1012.7 |
| 20260506215705 | 6 | 104 | 1.6 | 4.8 | 0.00 | 0.00 | 0.00 | 83 | 1012.8 |
| 20260506215205 | 6 | 106 | 1.6 | 4.8 | 0.00 | 0.00 | 0.00 | 83 | 1012.8 |
| 20260506214205 | 6 | 106 | 1.6 | 6.4 | 0.00 | 0.00 | 0.00 | 84 | 1012.8 |
| 20260506212704 | 6 | 142 | 0.0 | 4.8 | 0.00 | 0.00 | 0.00 | 83 | 1012.7 |
| 20260506212205 | 6 | 142 | 0.0 | 6.4 | 0.00 | 0.00 | 0.00 | 83 | 1012.7 |
| 20260506211705 | 6 | 142 | 1.6 | 6.4 | 0.00 | 0.00 | 0.00 | 82 | 1012.8 |
| 20260506211204 | 6 | 130 | 1.6 | 6.4 | 0.00 | 0.00 | 0.00 | 82 | 1012.7 |
| 20260506210204 | 6 | 240 | 0.0 | 4.8 | 0.00 | 0.00 | 0.00 | 81 | 1012.6 |
| 20260506205705 | 7 | 241 | 1.6 | 6.4 | 0.00 | 0.00 | 0.00 | 80 | 1012.5 |
| 20260506205205 | 7 | 303 | 1.6 | 6.4 | 0.00 | 0.00 | 0.00 | 80 | 1012.4 |
| 20260506204205 | 7 | 0 | 3.2 | 3.2 | 0.00 | 0.00 | 0.00 | 80 | 1012.4 |
| 20260506202705 | 7 | 69 | 0.0 | 6.4 | 0.00 | 0.00 | 0.00 | 82 | 1012.3 |
| 20260506202204 | 7 | 69 | 0.0 | 6.4 | 0.00 | 0.00 | 0.00 | 82 | 1012.2 |
| 20260506201705 | 7 | 111 | 0.0 | 4.8 | 0.00 | 0.00 | 0.00 | 83 | 1012.2 |
| 20260506201205 | 7 | 111 | 0.0 | 4.8 | 0.00 | 0.00 | 0.00 | 83 | 1012.2 |
| 20260506200705 | 7 | 111 | 3.2 | 4.8 | 0.00 | 0.00 | 0.00 | 83 | 1012.3 |
| 20260506200205 | 7 | 85 | 1.6 | 3.2 | 0.00 | 0.00 | 0.00 | 82 | 1012.3 |
| 20260506195705 | 7 | 85 | 1.6 | 3.2 | 0.00 | 0.00 | 0.00 | 81 | 1012.2 |
| 20260506195204 | 7 | 85 | 0.0 | 3.2 | 0.00 | 0.00 | 0.00 | 80 | 1011.9 |
| 20260506194705 | 7 | 85 | 0.0 | 3.2 | 0.00 | 0.00 | 0.00 | 80 | 1011.9 |
| 20260506194205 | 7 | 85 | 0.0 | 3.2 | 0.00 | 0.00 | 0.00 | 79 | 1011.9 |
| 20260506193705 | 7 | 85 | 3.2 | 3.2 | 0.00 | 0.00 | 0.00 | 79 | 1011.8 |
| 20260506192704 | 7 | 85 | 0.0 | 1.6 | 0.00 | 0.00 | 0.00 | 76 | 1011.7 |
| 20260506192205 | 7 | 85 | 0.0 | 3.2 | 0.00 | 0.00 | 0.00 | 75 | 1011.7 |
| 20260506191722 | 8 | 85 | 0.0 | 3.2 | 0.00 | 0.00 | 0.00 | 74 | 1011.7 |
| 20260506191205 | 8 | 85 | 0.0 | 3.2 | 0.00 | 0.00 | 0.00 | 73 | 1011.6 |
| 20260506190704 | 8 | 85 | 3.2 | 3.2 | 0.00 | 0.00 | 0.00 | 72 | 1011.7 |
| 20260506190204 | 8 | 85 | 1.6 | 0.0 | 0.00 | 0.00 | 0.00 | 71 | 1011.5 |
| 20260506185705 | 9 | 85 | 0.0 | 0.0 | 0.00 | 0.00 | 0.00 | 71 | 1011.6 |
| 20260506185204 | 9 | 85 | 0.0 | 3.2 | 0.00 | 0.00 | 0.00 | 70 | 1011.5 |
| 20260506183704 | 10 | 85 | 1.6 | 9.7 | 0.00 | 0.00 | 0.00 | 66 | 1011.4 |
| 20260506183204 | 10 | 85 | 3.2 | 9.7 | 0.00 | 0.00 | 0.00 | 65 | 1011.4 |
| 20260506182704 | 10 | 66 | 6.4 | 14.5 | 0.00 | 0.00 | 0.00 | 65 | 1011.4 |
| 20260506182226 | 10 | 41 | 6.4 | 14.5 | 0.00 | 0.00 | 0.00 | 65 | 1011.4 |
| 20260506181705 | 11 | 65 | 6.4 | 14.5 | 0.00 | 0.00 | 0.00 | 65 | 1011.4 |
| 20260506181205 | 11 | 49 | 9.7 | 11.3 | 0.00 | 0.00 | 0.00 | 64 | 1011.4 |
| 20260506180705 | 11 | 72 | 8.0 | 9.7 | 0.00 | 0.00 | 0.00 | 64 | 1011.4 |
| 20260506180205 | 11 | 83 | 1.6 | 9.7 | 0.00 | 0.00 | 0.00 | 64 | 1011.4 |
| 20260506175205 | 11 | 72 | 1.6 | 9.7 | 0.00 | 0.00 | 0.00 | 62 | 1011.3 |
| 20260506174705 | 11 | 72 | 6.4 | 6.4 | 0.00 | 0.00 | 0.00 | 61 | 1011.3 |
| 20260506174205 | 11 | 89 | 3.2 | 8.0 | 0.00 | 0.00 | 0.00 | 61 | 1011.3 |
| 20260506173205 | 11 | 14 | 3.2 | 11.3 | 0.00 | 0.00 | 0.00 | 57 | 1011.4 |
| 20260506172705 | 11 | 34 | 6.4 | 9.7 | 0.00 | 0.00 | 0.00 | 56 | 1011.4 |
| 20260506172204 | 11 | 47 | 6.4 | 11.3 | 0.00 | 0.00 | 0.00 | 57 | 1011.4 |
| 20260506171204 | 11 | 27 | 6.4 | 11.3 | 0.00 | 0.00 | 0.00 | 56 | 1011.4 |
| 20260506170204 | 11 | 87 | 3.2 | 11.3 | 0.00 | 0.00 | 0.00 | 59 | 1011.4 |
| 20260506165205 | 11 | 72 | 4.8 | 11.3 | 0.00 | 0.00 | 0.00 | 59 | 1011.3 |
| 20260506164704 | 11 | 69 | 4.8 | 11.3 | 0.00 | 0.00 | 0.00 | 60 | 1011.1 |
| 20260506164204 | 11 | 75 | 6.4 | 11.3 | 0.00 | 0.00 | 0.00 | 56 | 1011.3 |
| 20260506163705 | 12 | 55 | 8.0 | 11.3 | 0.00 | 0.00 | 0.00 | 53 | 1011.3 |
| 20260506162705 | 12 | 65 | 9.7 | 14.5 | 0.00 | 0.00 | 0.00 | 52 | 1011.1 |
| 20260506162228 | 12 | 76 | 8.0 | 14.5 | 0.00 | 0.00 | 0.00 | 51 | 1011.1 |
| 20260506161212 | 12 | 90 | 4.8 | 9.7 | 0.00 | 0.00 | 0.00 | 51 | 1011.1 |
| 20260506160705 | 12 | 61 | 4.8 | 9.7 | 0.00 | 0.00 | 0.00 | 49 | 1011.1 |
| 20260506155704 | 13 | 104 | 1.6 | 14.5 | 0.00 | 0.00 | 0.00 | 48 | 1011.1 |
| 20260506155204 | 14 | 47 | 3.2 | 17.7 | 0.00 | 0.00 | 0.00 | 44 | 1011.1 |
| 20260506154705 | 14 | 73 | 6.4 | 17.7 | 0.00 | 0.00 | 0.00 | 44 | 1011.1 |
| 20260506154205 | 15 | 0 | 9.7 | 17.7 | 0.00 | 0.00 | 0.00 | 42 | 1011.1 |
| 20260506153704 | 15 | 314 | 3.2 | 17.7 | 0.00 | 0.00 | 0.00 | 43 | 1011.0 |
| 20260506152705 | 15 | 292 | 9.7 | 17.7 | 0.00 | 0.00 | 0.00 | 45 | 1011.1 |
| 20260506150705 | 15 | 303 | 14.5 | 19.3 | 0.00 | 0.00 | 0.00 | 43 | 1011.1 |
| 20260506145705 | 15 | 178 | 12.9 | 17.7 | 0.00 | 0.00 | 0.00 | 42 | 1011.3 |
| 20260506145204 | 15 | 186 | 3.2 | 17.7 | 0.00 | 0.00 | 0.00 | 41 | 1011.3 |
| 20260506144705 | 15 | 283 | 6.4 | 17.7 | 0.00 | 0.00 | 0.00 | 43 | 1011.3 |
| 20260506144205 | 15 | 183 | 9.7 | 17.7 | 0.00 | 0.00 | 0.00 | 44 | 1011.4 |
| 20260506143705 | 14 | 216 | 3.2 | 19.3 | 0.00 | 0.00 | 0.00 | 44 | 1011.4 |
| 20260506143204 | 14 | 245 | 8.0 | 19.3 | 0.00 | 0.00 | 0.00 | 46 | 1011.4 |
| 20260506142704 | 14 | 224 | 9.7 | 16.1 | 0.00 | 0.00 | 0.00 | 43 | 1011.4 |
| 20260506142205 | 15 | 321 | 6.4 | 16.1 | 0.00 | 0.00 | 0.00 | 46 | 1011.4 |
| 20260506141204 | 14 | 310 | 6.4 | 16.1 | 0.00 | 0.00 | 0.00 | 42 | 1011.6 |
| 20260506140705 | 13 | 330 | 11.3 | 16.1 | 0.00 | 0.00 | 0.00 | 46 | 1011.6 |
| 20260506140205 | 13 | 355 | 8.0 | 16.1 | 0.00 | 0.00 | 0.00 | 47 | 1011.8 |
| 20260506134704 | 13 | 354 | 8.0 | 19.3 | 0.00 | 0.00 | 0.00 | 47 | 1011.8 |
| 20260506134205 | 13 | 326 | 12.9 | 17.7 | 0.00 | 0.00 | 0.00 | 47 | 1011.8 |
| 20260506133705 | 13 | 345 | 12.9 | 22.5 | 0.00 | 0.00 | 0.00 | 48 | 1011.9 |
| 20260506132704 | 13 | 292 | 9.7 | 16.1 | 0.00 | 0.00 | 0.00 | 48 | 1011.9 |
| 20260506132204 | 13 | 317 | 11.3 | 16.1 | 0.00 | 0.00 | 0.00 | 50 | 1012.1 |
| 20260506131705 | 13 | 302 | 4.8 | 17.7 | 0.00 | 0.00 | 0.00 | 47 | 1012.1 |
| 20260506131205 | 13 | 268 | 9.7 | 17.7 | 0.00 | 0.00 | 0.00 | 50 | 1012.1 |
| 20260506130704 | 13 | 303 | 4.8 | 17.7 | 0.00 | 0.00 | 0.00 | 50 | 1012.1 |
| 20260506130204 | 12 | 269 | 4.8 | 14.5 | 0.00 | 0.00 | 0.00 | 53 | 1012.1 |
| 20260506125204 | 11 | 28 | 3.2 | 11.3 | 0.00 | 0.00 | 0.00 | 52 | 1012.3 |
| 20260506124704 | 11 | 306 | 4.8 | 14.5 | 0.00 | 0.00 | 0.00 | 51 | 1012.3 |
| 20260506124205 | 11 | 306 | 6.4 | 16.1 | 0.00 | 0.00 | 0.00 | 51 | 1012.3 |
| 20260506123705 | 11 | 336 | 6.4 | 17.7 | 0.00 | 0.00 | 0.00 | 52 | 1012.4 |
| 20260506123204 | 12 | 323 | 6.4 | 17.7 | 0.00 | 0.00 | 0.00 | 51 | 1012.4 |
| 20260506122705 | 12 | 333 | 9.7 | 11.3 | 0.00 | 0.00 | 0.00 | 52 | 1012.3 |
| 20260506122204 | 12 | 357 | 8.0 | 11.3 | 0.00 | 0.00 | 0.00 | 53 | 1012.3 |
| 20260506121204 | 11 | 298 | 8.0 | 14.5 | 0.00 | 0.00 | 0.00 | 53 | 1012.4 |
| 20260506120704 | 11 | 292 | 4.8 | 14.5 | 0.00 | 0.00 | 0.00 | 53 | 1012.5 |
| 20260506120205 | 11 | 278 | 6.4 | 14.5 | 0.00 | 0.00 | 0.00 | 54 | 1012.6 |
| 20260506115704 | 11 | 334 | 3.2 | 9.7 | 0.00 | 0.00 | 0.00 | 51 | 1012.6 |
| 20260506115204 | 11 | 252 | 4.8 | 14.5 | 0.00 | 0.00 | 0.00 | 53 | 1012.6 |
| 20260506114705 | 11 | 350 | 3.2 | 14.5 | 0.00 | 0.00 | 0.00 | 52 | 1012.6 |
| 20260506114204 | 11 | 323 | 6.4 | 9.7 | 0.00 | 0.00 | 0.00 | 51 | 1012.7 |
| 20260506113704 | 11 | 319 | 4.8 | 11.3 | 0.00 | 0.00 | 0.00 | 51 | 1012.6 |
| 20260506113204 | 11 | 279 | 3.2 | 11.3 | 0.00 | 0.00 | 0.00 | 53 | 1012.6 |
| 20260506112705 | 11 | 307 | 3.2 | 11.3 | 0.00 | 0.00 | 0.00 | 51 | 1012.8 |
| 20260506112227 | 11 | 327 | 3.2 | 9.7 | 0.00 | 0.00 | 0.00 | 53 | 1012.7 |
| 20260506111705 | 11 | 295 | 3.2 | 9.7 | 0.00 | 0.00 | 0.00 | 53 | 1012.7 |
| 20260506111204 | 11 | 303 | 4.8 | 14.5 | 0.00 | 0.00 | 0.00 | 50 | 1012.8 |
| 20260506110705 | 11 | 326 | 4.8 | 14.5 | 0.00 | 0.00 | 0.00 | 53 | 1012.8 |
| 20260506110204 | 11 | 279 | 3.2 | 14.5 | 0.00 | 0.00 | 0.00 | 51 | 1012.8 |
| 20260506105705 | 11 | 316 | 6.4 | 17.7 | 0.00 | 0.00 | 0.00 | 51 | 1012.8 |
| 20260506104705 | 11 | 334 | 8.0 | 17.7 | 0.00 | 0.00 | 0.00 | 52 | 1013.0 |
| 20260506103705 | 11 | 307 | 3.2 | 14.5 | 0.00 | 0.00 | 0.00 | 52 | 1012.8 |
| 20260506103205 | 11 | 324 | 6.4 | 14.5 | 0.00 | 0.00 | 0.00 | 51 | 1012.7 |
| 20260506102705 | 11 | 0 | 6.4 | 16.1 | 0.00 | 0.00 | 0.00 | 53 | 1012.8 |
| 20260506102205 | 11 | 336 | 8.0 | 16.1 | 0.00 | 0.00 | 0.00 | 54 | 1012.8 |
| 20260506101704 | 11 | 49 | 4.8 | 16.1 | 0.00 | 0.00 | 0.00 | 57 | 1012.8 |
| 20260506101205 | 10 | 0 | 9.7 | 11.3 | 0.00 | 0.00 | 0.00 | 57 | 1013.0 |
| 20260506100705 | 10 | 350 | 4.8 | 11.3 | 0.00 | 0.00 | 0.00 | 55 | 1013.0 |
| 20260506100222 | 10 | 0 | 4.8 | 11.3 | 0.00 | 0.00 | 0.00 | 55 | 1013.0 |
| 20260506095205 | 11 | 329 | 8.0 | 11.3 | 0.00 | 0.00 | 0.00 | 53 | 1013.0 |
| 20260506094705 | 11 | 293 | 6.4 | 11.3 | 0.00 | 0.00 | 0.00 | 53 | 1013.0 |
| 20260506093704 | 11 | 238 | 3.2 | 11.3 | 0.00 | 0.00 | 0.00 | 56 | 1012.8 |
| 20260506093204 | 11 | 312 | 8.0 | 11.3 | 0.00 | 0.00 | 0.00 | 57 | 1012.8 |
| 20260506092705 | 10 | 355 | 4.8 | 11.3 | 0.00 | 0.00 | 0.00 | 58 | 1012.7 |
| 20260506092204 | 10 | 285 | 3.2 | 11.3 | 0.00 | 0.00 | 0.00 | 55 | 1012.7 |
| 20260506091705 | 10 | 290 | 8.0 | 11.3 | 0.00 | 0.00 | 0.00 | 57 | 1012.7 |
| 20260506091205 | 10 | 299 | 1.6 | 17.7 | 0.00 | 0.00 | 0.00 | 57 | 1012.7 |
| 20260506090704 | 10 | 310 | 8.0 | 17.7 | 0.00 | 0.00 | 0.00 | 56 | 1012.7 |
| 20260506085704 | 10 | 324 | 9.7 | 9.7 | 0.00 | 0.00 | 0.00 | 57 | 1012.7 |
| 20260506085205 | 10 | 6 | 4.8 | 9.7 | 0.00 | 0.00 | 0.00 | 56 | 1012.7 |
| 20260506084704 | 10 | 337 | 4.8 | 9.7 | 0.00 | 0.00 | 0.00 | 56 | 1012.6 |
| 20260506084205 | 10 | 329 | 3.2 | 8.0 | 0.00 | 0.00 | 0.00 | 58 | 1012.7 |
| 20260506083705 | 9 | 321 | 4.8 | 8.0 | 0.00 | 0.00 | 0.00 | 58 | 1012.7 |
| 20260506083204 | 9 | 300 | 3.2 | 4.8 | 0.00 | 0.00 | 0.00 | 61 | 1012.6 |
| 20260506082704 | 9 | 285 | 0.0 | 4.8 | 0.00 | 0.00 | 0.00 | 63 | 1012.7 |
| 20260506082205 | 8 | 283 | 3.2 | 4.8 | 0.00 | 0.00 | 0.00 | 68 | 1012.7 |
| 20260506081705 | 8 | 193 | 3.2 | 4.8 | 0.00 | 0.00 | 0.00 | 71 | 1012.6 |
| 20260506081205 | 8 | 193 | 3.2 | 4.8 | 0.00 | 0.00 | 0.00 | 77 | 1012.6 |
| 20260506080705 | 8 | 99 | 1.6 | 0.0 | 0.00 | 0.00 | 0.00 | 83 | 1012.6 |
| 20260506080204 | 7 | 117 | 0.0 | 0.0 | 0.00 | 0.00 | 0.00 | 87 | 1012.5 |
| 20260506073205 | 5 | 134 | 0.0 | 0.0 | 0.00 | 0.00 | 0.00 | 94 | 1012.7 |
| 20260506072705 | 4 | 134 | 0.0 | 0.0 | 0.00 | 0.00 | 0.00 | 95 | 1012.6 |
| 20260506072205 | 4 | 134 | 0.0 | 0.0 | 0.00 | 0.00 | 0.00 | 95 | 1012.7 |
| 20260506071705 | 3 | 134 | 0.0 | 0.0 | 0.00 | 0.00 | 0.00 | 95 | 1012.6 |
| 20260506071204 | 3 | 134 | 0.0 | 0.0 | 0.00 | 0.00 | 0.00 | 95 | 1012.7 |
| 20260506070705 | 2 | 134 | 0.0 | 0.0 | 0.00 | 0.00 | 0.00 | 95 | 1012.7 |
| 20260506070204 | 2 | 134 | 0.0 | 0.0 | 0.00 | 0.00 | 0.00 | 95 | 1012.7 |
| 20260506062204 | 0 | 134 | 0.0 | 0.0 | 0.00 | 0.00 | 0.00 | 95 | 1012.7 |
| 20260506061705 | -1 | 134 | 0.0 | 0.0 | 0.00 | 0.00 | 0.00 | 95 | 1012.7 |
| 20260506060704 | -1 | 134 | 0.0 | 0.0 | 0.00 | 0.00 | 0.00 | 94 | 1012.8 |
| 20260506051205 | -2 | 134 | 0.0 | 0.0 | 0.00 | 0.00 | 0.00 | 93 | 1012.7 |
| 20260506050705 | -2 | 117 | 0.0 | 0.0 | 0.00 | 0.00 | 0.00 | 93 | 1012.6 |
| 20260506044705 | -2 | 117 | 0.0 | 0.0 | 0.00 | 0.00 | 0.00 | 93 | 1012.6 |
| 20260506044204 | -2 | 117 | 0.0 | 0.0 | 0.00 | 0.00 | 0.00 | 93 | 1012.5 |
| 20260506043704 | -2 | 117 | 0.0 | 0.0 | 0.00 | 0.00 | 0.00 | 93 | 1012.5 |
| 20260506042705 | -2 | 117 | 0.0 | 0.0 | 0.00 | 0.00 | 0.00 | 93 | 1012.6 |
| 20260506042204 | -2 | 117 | 0.0 | 0.0 | 0.00 | 0.00 | 0.00 | 93 | 1012.6 |
| 20260506041705 | -2 | 117 | 0.0 | 0.0 | 0.00 | 0.00 | 0.00 | 93 | 1012.5 |
| 20260506041222 | -2 | 117 | 0.0 | 0.0 | 0.00 | 0.00 | 0.00 | 93 | 1012.5 |
| 20260506040705 | -2 | 117 | 0.0 | 0.0 | 0.00 | 0.00 | 0.00 | 93 | 1012.6 |
| 20260506040204 | -2 | 117 | 0.0 | 0.0 | 0.00 | 0.00 | 0.00 | 93 | 1012.7 |
| 20260506035704 | -2 | 117 | 0.0 | 0.0 | 0.00 | 0.00 | 0.00 | 93 | 1012.7 |
| 20260506035204 | -2 | 117 | 0.0 | 0.0 | 0.00 | 0.00 | 0.00 | 93 | 1012.7 |
| 20260506034205 | -1 | 117 | 0.0 | 0.0 | 0.00 | 0.00 | 0.00 | 93 | 1012.8 |
| 20260506033705 | -1 | 117 | 0.0 | 0.0 | 0.00 | 0.00 | 0.00 | 93 | 1012.8 |
| 20260506033204 | -1 | 117 | 0.0 | 0.0 | 0.00 | 0.00 | 0.00 | 93 | 1012.8 |
| 20260506032705 | -1 | 117 | 0.0 | 0.0 | 0.00 | 0.00 | 0.00 | 93 | 1012.7 |
| 20260506032204 | -1 | 117 | 0.0 | 0.0 | 0.00 | 0.00 | 0.00 | 93 | 1012.8 |
| 20260506031205 | -1 | 117 | 0.0 | 0.0 | 0.00 | 0.00 | 0.00 | 93 | 1012.8 |
| 20260506030204 | -1 | 117 | 0.0 | 0.0 | 0.00 | 0.00 | 0.00 | 93 | 1013.0 |
| 20260506025704 | -1 | 117 | 0.0 | 0.0 | 0.00 | 0.00 | 0.00 | 93 | 1012.8 |
| 20260506025204 | -1 | 117 | 0.0 | 0.0 | 0.00 | 0.00 | 0.00 | 93 | 1012.8 |
| 20260506024705 | -1 | 117 | 0.0 | 0.0 | 0.00 | 0.00 | 0.00 | 93 | 1012.8 |
| 20260506024205 | -1 | 117 | 0.0 | 0.0 | 0.00 | 0.00 | 0.00 | 93 | 1012.7 |
| 20260506023705 | -1 | 117 | 0.0 | 0.0 | 0.00 | 0.00 | 0.00 | 93 | 1012.8 |
| 20260506023204 | -1 | 117 | 0.0 | 0.0 | 0.00 | 0.00 | 0.00 | 93 | 1012.7 |
| 20260506022705 | -1 | 117 | 0.0 | 0.0 | 0.00 | 0.00 | 0.00 | 93 | 1012.8 |
| 20260506022204 | -1 | 117 | 0.0 | 0.0 | 0.00 | 0.00 | 0.00 | 93 | 1012.8 |
| 20260506021704 | -1 | 117 | 0.0 | 0.0 | 0.00 | 0.00 | 0.00 | 93 | 1012.8 |
| 20260506021204 | -1 | 117 | 0.0 | 0.0 | 0.00 | 0.00 | 0.00 | 92 | 1012.8 |
| 20260506020705 | -1 | 117 | 0.0 | 0.0 | 0.00 | 0.00 | 0.00 | 92 | 1013.0 |
| 20260506020204 | -1 | 117 | 0.0 | 0.0 | 0.00 | 0.00 | 0.00 | 92 | 1013.0 |
| 20260506015705 | -1 | 117 | 0.0 | 0.0 | 0.00 | 0.00 | 0.00 | 92 | 1013.0 |
| 20260506015205 | -1 | 117 | 0.0 | 0.0 | 0.00 | 0.00 | 0.00 | 92 | 1012.7 |
| 20260506013705 | -1 | 117 | 0.0 | 0.0 | 0.00 | 0.00 | 0.00 | 92 | 1012.8 |
| 20260506013205 | -1 | 117 | 0.0 | 0.0 | 0.00 | 0.00 | 0.00 | 92 | 1012.8 |
| 20260506012705 | -1 | 117 | 0.0 | 0.0 | 0.00 | 0.00 | 0.00 | 92 | 1012.8 |
| 20260506012204 | -1 | 117 | 0.0 | 0.0 | 0.00 | 0.00 | 0.00 | 92 | 1013.0 |
| 20260506011704 | 0 | 117 | 0.0 | 0.0 | 0.00 | 0.00 | 0.00 | 92 | 1013.0 |
| 20260506011204 | 0 | 117 | 0.0 | 0.0 | 0.00 | 0.00 | 0.00 | 92 | 1013.0 |
| 20260506010705 | 0 | 117 | 0.0 | 0.0 | 0.00 | 0.00 | 0.00 | 92 | 1013.0 |
| 20260506005704 | 0 | 117 | 0.0 | 0.0 | 0.00 | 0.00 | 0.00 | 92 | 1013.1 |
| 20260506005205 | 0 | 117 | 0.0 | 0.0 | 0.00 | 0.00 | 0.00 | 92 | 1013.1 |
| 20260506004704 | 0 | 117 | 0.0 | 0.0 | 0.00 | 0.00 | 0.00 | 92 | 1013.2 |
| 20260506004205 | 0 | 117 | 0.0 | 0.0 | 0.00 | 0.00 | 0.00 | 92 | 1013.2 |
| 20260506003705 | 0 | 117 | 0.0 | 0.0 | 0.00 | 0.00 | 0.00 | 92 | 1013.3 |
| 20260506003205 | 0 | 117 | 0.0 | 0.0 | 0.00 | 0.00 | 0.00 | 92 | 1013.3 |
| 20260506002204 | 0 | 117 | 0.0 | 0.0 | 0.00 | 0.00 | 0.00 | 91 | 1013.3 |
| 20260506001705 | 0 | 117 | 0.0 | 0.0 | 0.00 | 0.00 | 0.00 | 92 | 1013.3 |
| 20260506000704 | 0 | 117 | 0.0 | 0.0 | 0.00 | 0.00 | 0.00 | 92 | 1013.4 |
| 20260506000205 | 0 | 117 | 0.0 | 0.0 | 0.00 | 0.00 | 0.00 | 92 | 1013.3 |
| 20260505235704 | 0 | 117 | 0.0 | 0.0 | 0.00 | 0.00 | 0.00 | 91 | 1013.3 |
| 20260505234704 | 0 | 117 | 0.0 | 0.0 | 0.00 | 0.00 | 0.00 | 91 | 1013.3 |